,,PA_Meas_PMT16A,,PR_Meas_QMR101_102,,RH_Meas_QMH101,,SR_Meas_QMS101,,TA_Meas_QMH101,,GenWind,,GenWind,
time,status,PA,status,PR,status,RH,status,SR,status,TA,status,DirAvg,status,SpdAvg,
2012-03-06, 00:00:04,VALID,915.546,VALID,0,VALID,95.0792,VALID,0,VALID,19.3308,VALID,348,VALID,0.412891,
2012-03-06, 00:01:04,VALID,915.605,VALID,0,VALID,95.0488,VALID,0,VALID,19.3099,VALID,348,VALID,1.07422,
2012-03-06, 00:02:04,VALID,915.641,VALID,0,VALID,94.9115,VALID,0.107441,VALID,19.3308,VALID,348,VALID,0.771484,
2012-03-06, 00:03:04,VALID,915.603,VALID,0,VALID,94.7591,VALID,0,VALID,19.2889,VALID,348,VALID,0.644531,
2012-03-06, 00:04:04,VALID,915.606,VALID,0,VALID,94.6295,VALID,0,VALID,19.3294,VALID,348,VALID,0.328516,
2012-03-06, 00:05:04,VALID,915.65,VALID,0,VALID,94.477,VALID,0.107441,VALID,19.3489,VALID,347,VALID,0.696484,
2012-03-06, 00:06:04,VALID,915.643,VALID,0,VALID,94.233,VALID,0,VALID,19.3893,VALID,347,VALID,1.00664,
2012-03-06, 00:07:04,VALID,915.645,VALID,0,VALID,94.1721,VALID,0,VALID,19.4074,VALID,347,VALID,0.551953,
2012-03-06, 00:08:04,VALID,915.651,VALID,0,VALID,94.1187,VALID,0,VALID,19.4088,VALID,347,VALID,0.612109,
2012-03-06, 00:09:04,VALID,915.68,VALID,0,VALID,94.294,VALID,0.107441,VALID,19.4074,VALID,347,VALID,0.559766,
2012-03-06, 00:10:04,VALID,915.624,VALID,0,VALID,94.477,VALID,0,VALID,19.3893,VALID,347,VALID,1.16602,
2012-03-06, 00:11:04,VALID,915.625,VALID,0,VALID,94.4999,VALID,0,VALID,19.3684,VALID,347,VALID,0.890234,
2012-03-06, 00:12:04,VALID,915.6,VALID,0,VALID,94.538,VALID,0,VALID,19.3489,VALID,347,VALID,0.448828,
2012-03-06, 00:13:04,VALID,915.592,VALID,0,VALID,94.6447,VALID,0.107441,VALID,19.3294,VALID,347,VALID,0.0714844,
2012-03-06, 00:14:04,VALID,915.592,VALID,0,VALID,94.6905,VALID,0,VALID,19.3308,VALID,347,VALID,0,
2012-03-06, 00:15:04,VALID,915.513,VALID,0,VALID,94.7362,VALID,0,VALID,19.2904,VALID,347,VALID,0.538281,
2012-03-06, 00:16:04,VALID,915.525,VALID,0,VALID,94.7667,VALID,0,VALID,19.3308,VALID,347,VALID,0.632422,
2012-03-06, 00:17:04,VALID,915.477,VALID,0,VALID,94.5609,VALID,0,VALID,19.3308,VALID,347,VALID,1.14492,
2012-03-06, 00:18:04,VALID,915.499,VALID,0,VALID,94.4236,VALID,0,VALID,19.3908,VALID,321,VALID,0.564844,
2012-03-06, 00:19:04,VALID,915.425,VALID,0,VALID,94.2483,VALID,0,VALID,19.3908,VALID,326,VALID,0.889063,
2012-03-06, 00:20:04,VALID,915.432,VALID,0,VALID,94.2178,VALID,0,VALID,19.4283,VALID,43,VALID,0.471875,
2012-03-06, 00:21:04,VALID,915.432,VALID,0,VALID,94.1797,VALID,0,VALID,19.4478,VALID,43,VALID,0.355859,
2012-03-06, 00:22:04,VALID,915.451,VALID,0,VALID,94.1568,VALID,0,VALID,19.4283,VALID,43,VALID,0.573047,
2012-03-06, 00:23:04,VALID,915.39,VALID,0,VALID,94.4084,VALID,0,VALID,19.4088,VALID,43,VALID,1.03086,
2012-03-06, 00:24:04,VALID,915.383,VALID,0,VALID,94.5456,VALID,0,VALID,19.3893,VALID,25,VALID,0.869141,
2012-03-06, 00:25:04,VALID,915.352,VALID,0,VALID,94.2788,VALID,0,VALID,19.3503,VALID,358,VALID,1.40039,
2012-03-06, 00:26:04,VALID,915.349,VALID,0,VALID,94.0501,VALID,0,VALID,19.4088,VALID,351,VALID,0.203516,
2012-03-06, 00:27:04,VALID,915.326,VALID,0,VALID,93.9357,VALID,0.107441,VALID,19.4673,VALID,351,VALID,0.00585938,
2012-03-06, 00:28:04,VALID,915.274,VALID,0,VALID,93.8061,VALID,0,VALID,19.4673,VALID,10,VALID,1.14141,
2012-03-06, 00:29:04,VALID,915.309,VALID,0,VALID,93.7528,VALID,0,VALID,19.4868,VALID,337,VALID,0.787891,
2012-03-06, 00:30:04,VALID,915.279,VALID,0,VALID,93.7833,VALID,0,VALID,19.4853,VALID,14,VALID,0.158984,
2012-03-06, 00:31:04,VALID,915.285,VALID,0,VALID,93.8671,VALID,0,VALID,19.4868,VALID,14,VALID,0.591016,
2012-03-06, 00:32:04,VALID,915.31,VALID,0,VALID,94.1339,VALID,0,VALID,19.4868,VALID,14,VALID,0.608203,
2012-03-06, 00:33:04,VALID,915.317,VALID,0,VALID,94.1721,VALID,0,VALID,19.4883,VALID,14,VALID,0.853125,
2012-03-06, 00:34:04,VALID,915.313,VALID,0,VALID,94.2178,VALID,0,VALID,19.4688,VALID,14,VALID,0.758203,
2012-03-06, 00:35:04,VALID,915.31,VALID,0,VALID,94.3169,VALID,0,VALID,19.4074,VALID,14,VALID,0.698438,
2012-03-06, 00:36:04,VALID,915.287,VALID,0,VALID,94.5532,VALID,0,VALID,19.4088,VALID,14,VALID,1.16445,
2012-03-06, 00:37:04,VALID,915.274,VALID,0,VALID,94.6828,VALID,0,VALID,19.3893,VALID,14,VALID,0.894922,
2012-03-06, 00:38:04,VALID,915.248,VALID,0,VALID,94.5609,VALID,0,VALID,19.3893,VALID,13,VALID,0.969922,
2012-03-06, 00:39:04,VALID,915.277,VALID,0,VALID,94.5685,VALID,0,VALID,19.3893,VALID,13,VALID,0.731641,
2012-03-06, 00:40:04,VALID,915.229,VALID,0,VALID,94.4922,VALID,0,VALID,19.3893,VALID,13,VALID,0.852344,
2012-03-06, 00:41:04,VALID,915.235,VALID,0,VALID,94.3703,VALID,0,VALID,19.3893,VALID,13,VALID,1.16094,
2012-03-06, 00:42:04,VALID,915.221,VALID,0,VALID,94.2102,VALID,0,VALID,19.3503,VALID,10,VALID,1.23984,
2012-03-06, 00:43:04,VALID,915.251,VALID,0,VALID,94.073,VALID,0,VALID,19.3908,VALID,351,VALID,0.356641,
2012-03-06, 00:44:04,VALID,915.208,VALID,0,VALID,94.1339,VALID,0.107441,VALID,19.3698,VALID,351,VALID,0.419531,
2012-03-06, 00:45:04,VALID,915.169,VALID,0,VALID,94.2788,VALID,0,VALID,19.3503,VALID,351,VALID,0.902344,
2012-03-06, 00:46:04,VALID,915.154,VALID,0,VALID,94.416,VALID,0,VALID,19.3713,VALID,352,VALID,1.47891,
2012-03-06, 00:47:04,VALID,915.144,VALID,0,VALID,94.4541,VALID,0,VALID,19.3113,VALID,15,VALID,1.27969,
2012-03-06, 00:48:04,VALID,915.12,VALID,0,VALID,94.477,VALID,0,VALID,19.2918,VALID,16,VALID,0.568359,
2012-03-06, 00:49:04,VALID,915.119,VALID,0,VALID,94.5609,VALID,0,VALID,19.2709,VALID,16,VALID,0,
2012-03-06, 00:50:04,VALID,915.132,VALID,0,VALID,94.6142,VALID,0.107441,VALID,19.2918,VALID,16,VALID,0.497656,
2012-03-06, 00:51:04,VALID,915.07,VALID,0,VALID,94.7667,VALID,0,VALID,19.2904,VALID,16,VALID,1.3832,
2012-03-06, 00:52:04,VALID,915.037,VALID,0,VALID,94.6218,VALID,0,VALID,19.2709,VALID,16,VALID,1.7082,
2012-03-06, 00:53:04,VALID,915.065,VALID,0,VALID,94.5151,VALID,0,VALID,19.3113,VALID,28,VALID,1.03711,
2012-03-06, 00:54:04,VALID,915.057,VALID,0,VALID,94.4008,VALID,0,VALID,19.3099,VALID,347,VALID,0.522656,
2012-03-06, 00:55:04,VALID,915.076,VALID,0,VALID,94.4846,VALID,0.107441,VALID,19.3503,VALID,1,VALID,1.02344,
2012-03-06, 00:56:04,VALID,915.052,VALID,0,VALID,94.6447,VALID,0,VALID,19.3503,VALID,16,VALID,1.42266,
2012-03-06, 00:57:04,VALID,915.049,VALID,0,VALID,94.7133,VALID,0,VALID,19.3113,VALID,345,VALID,1.19687,
2012-03-06, 00:58:04,VALID,915.042,VALID,0,VALID,94.9268,VALID,0,VALID,19.3113,VALID,359,VALID,0.936328,
2012-03-06, 00:59:04,VALID,914.995,VALID,0,VALID,95.1021,VALID,0,VALID,19.3128,VALID,9,VALID,1.11758,
2012-03-06, 01:00:04,VALID,915.004,VALID,0,VALID,95.0411,VALID,0,VALID,19.2319,VALID,359,VALID,0.696875,
2012-03-06, 01:01:04,VALID,914.977,VALID,0,VALID,95.125,VALID,0,VALID,19.2528,VALID,359,VALID,0.0121094,
2012-03-06, 01:02:04,VALID,914.947,VALID,0,VALID,95.1555,VALID,0,VALID,19.2723,VALID,359,VALID,0.102734,
2012-03-06, 01:03:04,VALID,914.904,VALID,0,VALID,95.0792,VALID,0,VALID,19.2738,VALID,359,VALID,1.37227,
2012-03-06, 01:04:04,VALID,914.906,VALID,0,VALID,94.9192,VALID,0,VALID,19.2543,VALID,357,VALID,0.867969,
2012-03-06, 01:05:04,VALID,914.874,VALID,0,VALID,94.8277,VALID,0,VALID,19.2738,VALID,339,VALID,0.839844,
2012-03-06, 01:06:04,VALID,914.828,VALID,0,VALID,94.7743,VALID,0,VALID,19.2723,VALID,7,VALID,1.10781,
2012-03-06, 01:07:04,VALID,914.774,VALID,0,VALID,94.8124,VALID,0,VALID,19.2723,VALID,14,VALID,0.939062,
2012-03-06, 01:08:04,VALID,914.715,VALID,0,VALID,94.6981,VALID,0,VALID,19.2528,VALID,9,VALID,1.77578,
2012-03-06, 01:09:04,VALID,914.749,VALID,0,VALID,94.5304,VALID,0,VALID,19.2723,VALID,9,VALID,1.58242,
2012-03-06, 01:10:04,VALID,914.735,VALID,0,VALID,94.4389,VALID,0,VALID,19.2918,VALID,9,VALID,1.48203,
2012-03-06, 01:11:04,VALID,914.714,VALID,0,VALID,94.3017,VALID,0,VALID,19.3113,VALID,9,VALID,1.16758,
2012-03-06, 01:12:04,VALID,914.667,VALID,0,VALID,93.9967,VALID,0,VALID,19.3113,VALID,352,VALID,2.22109,
2012-03-06, 01:13:04,VALID,914.658,VALID,0,VALID,93.7909,VALID,0,VALID,19.3503,VALID,358,VALID,0.419531,
2012-03-06, 01:14:04,VALID,914.653,VALID,0,VALID,93.7299,VALID,0,VALID,19.3698,VALID,19,VALID,0.5375,
2012-03-06, 01:15:04,VALID,914.641,VALID,0,VALID,93.6994,VALID,0,VALID,19.3908,VALID,315,VALID,0.758594,
2012-03-06, 01:16:04,VALID,914.622,VALID,0,VALID,93.7147,VALID,0,VALID,19.4103,VALID,335,VALID,0.926953,
2012-03-06, 01:17:04,VALID,914.634,VALID,0,VALID,93.768,VALID,0,VALID,19.3893,VALID,3,VALID,1.43516,
2012-03-06, 01:18:04,VALID,914.668,VALID,0,VALID,93.9205,VALID,0,VALID,19.3893,VALID,3,VALID,0.382813,
2012-03-06, 01:19:04,VALID,914.662,VALID,0,VALID,93.8976,VALID,0,VALID,19.3698,VALID,3,VALID,0.281641,
2012-03-06, 01:20:04,VALID,914.685,VALID,0,VALID,93.8824,VALID,0,VALID,19.3698,VALID,3,VALID,0.942187,
2012-03-06, 01:21:04,VALID,914.696,VALID,0,VALID,93.6842,VALID,0,VALID,19.3698,VALID,19,VALID,1.70977,
2012-03-06, 01:22:04,VALID,914.709,VALID,0,VALID,93.5774,VALID,0,VALID,19.4298,VALID,14,VALID,0.361719,
2012-03-06, 01:23:04,VALID,914.721,VALID,0,VALID,93.4478,VALID,0,VALID,19.4478,VALID,14,VALID,0.748438,
2012-03-06, 01:24:04,VALID,914.704,VALID,0,VALID,93.242,VALID,0,VALID,19.4493,VALID,335,VALID,0.909766,
2012-03-06, 01:25:04,VALID,914.741,VALID,0,VALID,93.1963,VALID,0,VALID,19.4493,VALID,335,VALID,0.458984,
2012-03-06, 01:26:04,VALID,914.714,VALID,0,VALID,93.12,VALID,0,VALID,19.4688,VALID,7,VALID,1.96367,
2012-03-06, 01:27:04,VALID,914.703,VALID,0,VALID,93.0209,VALID,0,VALID,19.4463,VALID,1,VALID,1.525,
2012-03-06, 01:28:04,VALID,914.684,VALID,0,VALID,92.7465,VALID,0,VALID,19.5078,VALID,344,VALID,1.03945,
2012-03-06, 01:29:04,VALID,914.673,VALID,0,VALID,92.533,VALID,0,VALID,19.5258,VALID,354,VALID,1.05742,
2012-03-06, 01:30:04,VALID,914.669,VALID,0,VALID,92.6321,VALID,0,VALID,19.5033,VALID,16,VALID,0.870703,
2012-03-06, 01:31:04,VALID,914.672,VALID,0,VALID,92.7084,VALID,0,VALID,19.5678,VALID,16,VALID,0.834375,
2012-03-06, 01:32:04,VALID,914.675,VALID,0,VALID,92.7693,VALID,0,VALID,19.5258,VALID,341,VALID,0.643359,
2012-03-06, 01:33:04,VALID,914.685,VALID,0,VALID,93.0209,VALID,0,VALID,19.5273,VALID,341,VALID,0.719922,
2012-03-06, 01:34:04,VALID,914.645,VALID,0,VALID,93.1048,VALID,0,VALID,19.4658,VALID,341,VALID,0.700391,
2012-03-06, 01:35:04,VALID,914.588,VALID,0,VALID,93.1429,VALID,0,VALID,19.4478,VALID,6,VALID,1.78828,
2012-03-06, 01:36:04,VALID,914.602,VALID,0,VALID,93.3182,VALID,0,VALID,19.4673,VALID,5,VALID,1.64961,
2012-03-06, 01:37:04,VALID,914.542,VALID,0,VALID,93.2649,VALID,0,VALID,19.4673,VALID,14,VALID,1.6207,
2012-03-06, 01:38:04,VALID,914.549,VALID,0,VALID,93.1353,VALID,0,VALID,19.5288,VALID,17,VALID,1.73789,
2012-03-06, 01:39:04,VALID,914.491,VALID,0,VALID,93.0057,VALID,0,VALID,19.5273,VALID,359,VALID,2.73281,
2012-03-06, 01:40:04,VALID,914.466,VALID,0,VALID,92.6931,VALID,0,VALID,19.5663,VALID,19,VALID,1.71602,
2012-03-06, 01:41:04,VALID,914.503,VALID,0,VALID,92.594,VALID,0,VALID,19.6248,VALID,1,VALID,0.607422,
2012-03-06, 01:42:04,VALID,914.452,VALID,0,VALID,92.5788,VALID,0,VALID,19.5828,VALID,19,VALID,1.05,
2012-03-06, 01:43:04,VALID,914.431,VALID,0,VALID,92.838,VALID,0,VALID,19.6248,VALID,13,VALID,1.4457,
2012-03-06, 01:44:04,VALID,914.453,VALID,0,VALID,92.9066,VALID,0,VALID,19.5033,VALID,9,VALID,0.563281,
2012-03-06, 01:45:04,VALID,914.371,VALID,0,VALID,93.0209,VALID,0,VALID,19.6053,VALID,29,VALID,2.09766,
2012-03-06, 01:46:04,VALID,914.333,VALID,0,VALID,92.8303,VALID,0,VALID,19.6038,VALID,5,VALID,1.34766,
2012-03-06, 01:47:04,VALID,914.336,VALID,0,VALID,92.8532,VALID,0,VALID,19.5618,VALID,274,VALID,0.542188,
2012-03-06, 01:48:04,VALID,914.21,VALID,0,VALID,92.8837,VALID,0,VALID,19.6248,VALID,28,VALID,2.29375,
2012-03-06, 01:49:04,VALID,914.251,VALID,0,VALID,92.7389,VALID,0,VALID,19.6833,VALID,37,VALID,1.23281,
2012-03-06, 01:50:04,VALID,914.279,VALID,0,VALID,92.6474,VALID,0,VALID,19.6413,VALID,49,VALID,0.495703,
2012-03-06, 01:51:04,VALID,914.268,VALID,0,VALID,92.7389,VALID,0,VALID,19.7028,VALID,49,VALID,0.0765625,
2012-03-06, 01:52:04,VALID,914.21,VALID,0,VALID,92.8761,VALID,0,VALID,19.6023,VALID,29,VALID,1.28867,
2012-03-06, 01:53:04,VALID,914.155,VALID,0,VALID,93.1505,VALID,0,VALID,19.6263,VALID,38,VALID,2.11602,
2012-03-06, 01:54:04,VALID,914.136,VALID,0,VALID,93.303,VALID,0.107441,VALID,19.5453,VALID,24,VALID,2.57773,
2012-03-06, 01:55:04,VALID,914.136,VALID,0,VALID,93.3716,VALID,0,VALID,19.5228,VALID,18,VALID,1.39609,
2012-03-06, 01:56:04,VALID,914.098,VALID,0,VALID,93.2954,VALID,0,VALID,19.5828,VALID,22,VALID,1.57422,
2012-03-06, 01:57:04,VALID,914.092,VALID,0,VALID,93.2801,VALID,0,VALID,19.5423,VALID,34,VALID,2.00234,
2012-03-06, 01:58:04,VALID,914.13,VALID,0,VALID,93.181,VALID,0,VALID,19.6023,VALID,14,VALID,2.27734,
2012-03-06, 01:59:04,VALID,914.127,VALID,0,VALID,93.12,VALID,0,VALID,19.6803,VALID,352,VALID,0.335547,
2012-03-06, 02:00:04,VALID,914.13,VALID,0,VALID,93.0743,VALID,0.107441,VALID,19.6593,VALID,352,VALID,0.988672,
2012-03-06, 02:01:04,VALID,914.104,VALID,0,VALID,93.0895,VALID,0,VALID,19.6413,VALID,352,VALID,0.672266,
2012-03-06, 02:02:04,VALID,914.105,VALID,0,VALID,93.2649,VALID,0,VALID,19.7238,VALID,52,VALID,1.22187,
2012-03-06, 02:03:04,VALID,914.145,VALID,0,VALID,93.3945,VALID,0,VALID,19.6218,VALID,35,VALID,1.26992,
2012-03-06, 02:04:04,VALID,914.152,VALID,0,VALID,93.4555,VALID,0,VALID,19.6008,VALID,23,VALID,0.00273437,
2012-03-06, 02:05:04,VALID,914.127,VALID,0,VALID,93.0667,VALID,0.107441,VALID,19.6638,VALID,283,VALID,1.03125,
2012-03-06, 02:06:04,VALID,914.161,VALID,0,VALID,92.9371,VALID,0,VALID,19.6803,VALID,343,VALID,0.947266,
2012-03-06, 02:07:04,VALID,914.138,VALID,0,VALID,92.8303,VALID,0,VALID,19.6968,VALID,71,VALID,0.813672,
2012-03-06, 02:08:04,VALID,914.132,VALID,0,VALID,92.777,VALID,0,VALID,19.7388,VALID,228,VALID,1.17188,
2012-03-06, 02:09:04,VALID,914.157,VALID,0,VALID,92.8685,VALID,0,VALID,19.7403,VALID,199,VALID,0.394531,
2012-03-06, 02:10:04,VALID,914.101,VALID,0,VALID,92.8075,VALID,0,VALID,19.7628,VALID,253,VALID,0.880859,
2012-03-06, 02:11:04,VALID,914.083,VALID,0,VALID,92.9218,VALID,0,VALID,19.7418,VALID,76,VALID,1.11719,
2012-03-06, 02:12:04,VALID,914.09,VALID,0,VALID,93.0819,VALID,0,VALID,19.8033,VALID,33,VALID,0.814844,
2012-03-06, 02:13:04,VALID,914.152,VALID,0,VALID,93.3106,VALID,0,VALID,19.7418,VALID,51,VALID,0.660937,
2012-03-06, 02:14:04,VALID,914.095,VALID,0,VALID,93.6384,VALID,0,VALID,19.7223,VALID,29,VALID,1.25195,
2012-03-06, 02:15:04,VALID,914.088,VALID,0,VALID,93.8824,VALID,0,VALID,19.7013,VALID,287,VALID,0.471484,
2012-03-06, 02:16:04,VALID,914.074,VALID,0,VALID,94.0272,VALID,0,VALID,19.6218,VALID,338,VALID,0.749219,
2012-03-06, 02:17:04,VALID,914.054,VALID,0,VALID,94.1492,VALID,0,VALID,19.6023,VALID,36,VALID,1.575,
2012-03-06, 02:18:04,VALID,914.064,VALID,0,VALID,94.3017,VALID,0,VALID,19.5828,VALID,283,VALID,1.16953,
2012-03-06, 02:19:04,VALID,914.038,VALID,0,VALID,94.1949,VALID,0,VALID,19.5828,VALID,241,VALID,0.217578,
2012-03-06, 02:20:04,VALID,913.987,VALID,0,VALID,94.2254,VALID,0,VALID,19.6233,VALID,168,VALID,0.714844,
2012-03-06, 02:21:04,VALID,913.973,VALID,0,VALID,94.2864,VALID,0,VALID,19.6218,VALID,47,VALID,1.92188,
2012-03-06, 02:22:04,VALID,913.98,VALID,0,VALID,94.4313,VALID,0,VALID,19.6428,VALID,32,VALID,1.27969,
2012-03-06, 02:23:04,VALID,913.935,VALID,0,VALID,94.4694,VALID,0,VALID,19.6638,VALID,31,VALID,1.98203,
2012-03-06, 02:24:04,VALID,913.97,VALID,0,VALID,94.6447,VALID,0,VALID,19.6458,VALID,35,VALID,1.7918,
2012-03-06, 02:25:04,VALID,913.924,VALID,0,VALID,94.6371,VALID,0,VALID,19.6248,VALID,3,VALID,2.2293,
2012-03-06, 02:26:04,VALID,913.917,VALID,0,VALID,94.6981,VALID,0,VALID,19.6233,VALID,22,VALID,1.86758,
2012-03-06, 02:27:04,VALID,913.869,VALID,0,VALID,94.7514,VALID,0,VALID,19.6638,VALID,21,VALID,1.8918,
2012-03-06, 02:28:04,VALID,913.887,VALID,0,VALID,94.7743,VALID,0,VALID,19.6623,VALID,31,VALID,1.61875,
2012-03-06, 02:29:04,VALID,913.825,VALID,0,VALID,94.7896,VALID,0,VALID,19.6653,VALID,19,VALID,1.89219,
2012-03-06, 02:30:04,VALID,913.799,VALID,0,VALID,94.9039,VALID,0,VALID,19.7058,VALID,53,VALID,0.982031,
2012-03-06, 02:31:04,VALID,913.793,VALID,0,VALID,94.9192,VALID,0,VALID,19.6653,VALID,37,VALID,1.27617,
2012-03-06, 02:32:04,VALID,913.701,VALID,0,VALID,94.9573,VALID,0,VALID,19.5423,VALID,28,VALID,2.02656,
2012-03-06, 02:33:04,VALID,913.679,VALID,0,VALID,95.0564,VALID,0,VALID,19.6053,VALID,16,VALID,0.973437,
2012-03-06, 02:34:04,VALID,913.654,VALID,0,VALID,95.0945,VALID,0,VALID,19.5423,VALID,25,VALID,2.17461,
2012-03-06, 02:35:04,VALID,913.657,VALID,0,VALID,95.1479,VALID,0,VALID,19.5453,VALID,34,VALID,2.13867,
2012-03-06, 02:36:04,VALID,913.633,VALID,0,VALID,95.2012,VALID,0,VALID,19.5468,VALID,34,VALID,2.24062,
2012-03-06, 02:37:04,VALID,913.677,VALID,0,VALID,95.2851,VALID,0,VALID,19.6308,VALID,30,VALID,2.13477,
2012-03-06, 02:38:04,VALID,913.686,VALID,0,VALID,95.3308,VALID,0,VALID,19.4853,VALID,32,VALID,1.66133,
2012-03-06, 02:39:04,VALID,913.693,VALID,0,VALID,95.3918,VALID,0,VALID,19.5063,VALID,16,VALID,2.00469,
2012-03-06, 02:40:04,VALID,913.671,VALID,0,VALID,95.4147,VALID,0,VALID,19.5063,VALID,35,VALID,1.54141,
2012-03-06, 02:41:04,VALID,913.689,VALID,0,VALID,95.4604,VALID,0.107441,VALID,19.4853,VALID,25,VALID,2.23086,
2012-03-06, 02:42:04,VALID,913.654,VALID,0,VALID,95.468,VALID,0,VALID,19.5273,VALID,25,VALID,2.14336,
2012-03-06, 02:43:04,VALID,913.615,VALID,0,VALID,95.4452,VALID,0,VALID,19.5498,VALID,359,VALID,3.35469,
2012-03-06, 02:44:04,VALID,913.616,VALID,0,VALID,95.4299,VALID,0,VALID,19.6308,VALID,27,VALID,2.3625,
2012-03-06, 02:45:04,VALID,913.627,VALID,0,VALID,95.3384,VALID,0,VALID,19.5663,VALID,350,VALID,1.89961,
2012-03-06, 02:46:04,VALID,913.611,VALID,0,VALID,95.2622,VALID,0,VALID,19.5468,VALID,360,VALID,1.17305,
2012-03-06, 02:47:04,VALID,913.659,VALID,0,VALID,95.2622,VALID,0,VALID,19.5858,VALID,24,VALID,1.25234,
2012-03-06, 02:48:04,VALID,913.674,VALID,0,VALID,95.2012,VALID,0.107441,VALID,19.5843,VALID,16,VALID,1.18906,
2012-03-06, 02:49:04,VALID,913.658,VALID,0,VALID,95.1936,VALID,0,VALID,19.5648,VALID,39,VALID,2.225,
2012-03-06, 02:50:04,VALID,913.637,VALID,0,VALID,95.2317,VALID,0,VALID,19.5603,VALID,26,VALID,1.90273,
2012-03-06, 02:51:04,VALID,913.662,VALID,0,VALID,95.2012,VALID,0,VALID,19.6053,VALID,19,VALID,1.5832,
2012-03-06, 02:52:04,VALID,913.628,VALID,0,VALID,95.1555,VALID,0,VALID,19.5648,VALID,35,VALID,1.10898,
2012-03-06, 02:53:04,VALID,913.599,VALID,0,VALID,95.1936,VALID,0,VALID,19.6068,VALID,30,VALID,1.09883,
2012-03-06, 02:54:04,VALID,913.61,VALID,0,VALID,95.1783,VALID,0,VALID,19.5648,VALID,10,VALID,0.876953,
2012-03-06, 02:55:04,VALID,913.615,VALID,0,VALID,95.1479,VALID,0,VALID,19.6263,VALID,10,VALID,1.01367,
2012-03-06, 02:56:04,VALID,913.589,VALID,0,VALID,95.2317,VALID,0.107441,VALID,19.5648,VALID,356,VALID,2.0043,
2012-03-06, 02:57:04,VALID,913.585,VALID,0,VALID,95.2165,VALID,0,VALID,19.5243,VALID,345,VALID,1.80469,
2012-03-06, 02:58:04,VALID,913.581,VALID,0,VALID,95.2088,VALID,0.107441,VALID,19.5663,VALID,357,VALID,1.05273,
2012-03-06, 02:59:04,VALID,913.602,VALID,0,VALID,95.2088,VALID,0.107441,VALID,19.5243,VALID,293,VALID,0.560156,
2012-03-06, 03:00:04,VALID,913.549,VALID,0,VALID,95.247,VALID,0,VALID,19.5633,VALID,13,VALID,1.925,
2012-03-06, 03:01:04,VALID,913.551,VALID,0,VALID,95.186,VALID,0,VALID,19.5033,VALID,359,VALID,1.8,
2012-03-06, 03:02:04,VALID,913.575,VALID,0,VALID,95.2851,VALID,0,VALID,19.5648,VALID,43,VALID,1.63008,
2012-03-06, 03:03:04,VALID,913.591,VALID,0,VALID,95.3308,VALID,0.107441,VALID,19.5678,VALID,12,VALID,0.708203,
2012-03-06, 03:04:04,VALID,913.576,VALID,0,VALID,95.4223,VALID,0,VALID,19.5033,VALID,15,VALID,0.29375,
2012-03-06, 03:05:04,VALID,913.573,VALID,0,VALID,95.4757,VALID,0.107441,VALID,19.5438,VALID,14,VALID,0.991406,
2012-03-06, 03:06:04,VALID,913.562,VALID,0,VALID,95.3994,VALID,0.107441,VALID,19.5678,VALID,357,VALID,1.30664,
2012-03-06, 03:07:04,VALID,913.563,VALID,0,VALID,95.4147,VALID,0,VALID,19.5258,VALID,345,VALID,0.800781,
2012-03-06, 03:08:04,VALID,913.566,VALID,0,VALID,95.4985,VALID,0,VALID,19.5243,VALID,42,VALID,1.66094,
2012-03-06, 03:09:04,VALID,913.535,VALID,0,VALID,95.529,VALID,0.107441,VALID,19.5663,VALID,31,VALID,2.1207,
2012-03-06, 03:10:04,VALID,913.584,VALID,0,VALID,95.4985,VALID,0,VALID,19.5468,VALID,315,VALID,0.515625,
2012-03-06, 03:11:04,VALID,913.531,VALID,0,VALID,95.5214,VALID,0.107441,VALID,19.5468,VALID,4,VALID,0.734766,
2012-03-06, 03:12:04,VALID,913.549,VALID,0,VALID,95.59,VALID,0,VALID,19.5243,VALID,15,VALID,0.795703,
2012-03-06, 03:13:04,VALID,913.556,VALID,0,VALID,95.6281,VALID,0,VALID,19.5468,VALID,14,VALID,0.280469,
2012-03-06, 03:14:04,VALID,913.517,VALID,0,VALID,95.6281,VALID,0,VALID,19.5468,VALID,40,VALID,0.817187,
2012-03-06, 03:15:04,VALID,913.528,VALID,0,VALID,95.6281,VALID,0,VALID,19.5258,VALID,355,VALID,0.858203,
2012-03-06, 03:16:04,VALID,913.527,VALID,0,VALID,95.6053,VALID,0,VALID,19.5273,VALID,4,VALID,0.844141,
2012-03-06, 03:17:04,VALID,913.546,VALID,0,VALID,95.6586,VALID,0,VALID,19.5063,VALID,5,VALID,1.04609,
2012-03-06, 03:18:04,VALID,913.521,VALID,0,VALID,95.7349,VALID,0,VALID,19.5453,VALID,5,VALID,1.31094,
2012-03-06, 03:19:04,VALID,913.534,VALID,0,VALID,95.7958,VALID,0,VALID,19.5903,VALID,5,VALID,1.17109,
2012-03-06, 03:20:04,VALID,913.527,VALID,0,VALID,95.8111,VALID,0,VALID,19.4239,VALID,2,VALID,1.51055,
2012-03-06, 03:21:04,VALID,913.541,VALID,0,VALID,95.8416,VALID,0.107441,VALID,19.4463,VALID,12,VALID,1.49102,
2012-03-06, 03:22:04,VALID,913.519,VALID,0,VALID,95.8492,VALID,0,VALID,19.4268,VALID,7,VALID,1.69102,
2012-03-06, 03:23:04,VALID,913.481,VALID,0,VALID,95.8492,VALID,0,VALID,19.4254,VALID,1,VALID,2.38086,
2012-03-06, 03:24:04,VALID,913.423,VALID,0,VALID,95.7882,VALID,0,VALID,19.5303,VALID,1,VALID,2.95977,
2012-03-06, 03:25:04,VALID,913.447,VALID,0,VALID,95.7425,VALID,0,VALID,19.4463,VALID,348,VALID,2.0707,
2012-03-06, 03:26:04,VALID,913.447,VALID,0,VALID,95.7654,VALID,0.107441,VALID,19.4044,VALID,29,VALID,1.96094,
2012-03-06, 03:27:04,VALID,913.446,VALID,0,VALID,95.7349,VALID,0,VALID,19.5288,VALID,35,VALID,1.39922,
2012-03-06, 03:28:04,VALID,913.424,VALID,0,VALID,95.7501,VALID,0.107441,VALID,19.4239,VALID,11,VALID,0.0460938,
2012-03-06, 03:29:04,VALID,913.381,VALID,0,VALID,95.7349,VALID,0,VALID,19.5093,VALID,24,VALID,1.31289,
2012-03-06, 03:30:04,VALID,913.448,VALID,0,VALID,95.8263,VALID,0,VALID,19.4898,VALID,18,VALID,0.728906,
2012-03-06, 03:31:04,VALID,913.424,VALID,0,VALID,95.7577,VALID,0,VALID,19.4493,VALID,26,VALID,2.26133,
2012-03-06, 03:32:04,VALID,913.458,VALID,0,VALID,95.834,VALID,0,VALID,19.4283,VALID,25,VALID,0.253125,
2012-03-06, 03:33:04,VALID,913.478,VALID,0,VALID,95.8645,VALID,0,VALID,19.4088,VALID,23,VALID,0.783984,
2012-03-06, 03:34:04,VALID,913.463,VALID,0,VALID,95.8873,VALID,0,VALID,19.4313,VALID,11,VALID,2.11602,
2012-03-06, 03:35:04,VALID,913.493,VALID,0,VALID,95.9102,VALID,0,VALID,19.3698,VALID,23,VALID,1.84492,
2012-03-06, 03:36:04,VALID,913.508,VALID,0,VALID,95.9559,VALID,0,VALID,19.3684,VALID,16,VALID,0.94375,
2012-03-06, 03:37:04,VALID,913.547,VALID,0,VALID,95.9407,VALID,0,VALID,19.3908,VALID,22,VALID,0.791406,
2012-03-06, 03:38:04,VALID,913.573,VALID,0,VALID,95.9483,VALID,0,VALID,19.3503,VALID,37,VALID,1.99414,
2012-03-06, 03:39:04,VALID,913.605,VALID,0,VALID,96.0093,VALID,0,VALID,19.3713,VALID,348,VALID,0.901953,
2012-03-06, 03:40:04,VALID,913.517,VALID,0,VALID,95.9254,VALID,0,VALID,19.3518,VALID,45,VALID,1.76836,
2012-03-06, 03:41:04,VALID,913.533,VALID,0,VALID,95.9712,VALID,0,VALID,19.3128,VALID,5,VALID,1.4625,
2012-03-06, 03:42:04,VALID,913.578,VALID,0,VALID,95.9712,VALID,0,VALID,19.2933,VALID,28,VALID,1.54609,
2012-03-06, 03:43:04,VALID,913.609,VALID,0,VALID,95.9559,VALID,0,VALID,19.2933,VALID,30,VALID,2.07031,
2012-03-06, 03:44:04,VALID,913.572,VALID,0.2,VALID,96.0398,VALID,0,VALID,19.2918,VALID,18,VALID,1.05,
2012-03-06, 03:45:04,VALID,913.536,VALID,0,VALID,96.0322,VALID,0.107441,VALID,19.2709,VALID,41,VALID,2.13281,